カタログに戻る

STARLINK-30601

運用中通信VLEO
NORAD 58117·PAYLOAD·🇺🇸 United States

打ち上げ Oct 21, 2023 から Vandenberg Space Force Base

Loading…

次のパス (今後24時間)

TLE

最新Source: CelesTrak SupGP

元期: Sep 15, 2026, 02:33 UTC

1 58117C 23161W   26258.10673611  .00056246  00000+0  16619-2 0  2588
2 58117  53.1589   4.6204 0001206  99.7037  43.9437 15.34360567    16

AllMySatでSTARLINK-30601をリアルタイム追跡

Download on the App Store